Hourly Data Report for October 16, 2016

All times are specified in Local Standard Time (LST). Add 1 hour to adjust for Daylight Saving Time where and when it is observed.

GRISE FIORD CLIMATE
NUNAVUT

76°25'22.040" N
82°54'08.020" W
44.50 m
2402351
71971
NGC

Download Data

Hourly Data (October 2016)
Hourly Data Report for October 16, 2016
Temp Definition
°C
Dew Point Temp Definition
°C
Rel Hum Definition
%
Wind Dir Definition
10's deg

Wind Spd Definition
km/h
Visibility Definition
km
Stn Press Definition
kPa
Hmdx Definition


Wind Chill Definition


Weather Definition


TIME
00:00 -14.6 -17.9 76 9 4   100.41   -17 LegendNANA
01:00 -16.2 -19.4 76 11 8   100.42   -22 LegendNANA
02:00 -16.2 -18.7 81 11 7   100.45   -21 LegendNANA
03:00 -14.5 -17.8 76 6 2   100.49   -16 LegendNANA
04:00 -14.7 -17.2 81 8 2   100.52   -16 LegendNANA
05:00 -15.4 -19.9 69 3 4   100.55   -18 LegendNANA
06:00 -13.9 -19.2 64 4 3   100.57   -16 LegendNANA
07:00 -12.1 -17.7 63 9 6   100.56   -16 LegendNANA
08:00 -13.9 -17.8 72 10 3   100.57   -16 LegendNANA
09:00 -14.4 -18.2 73 10 8   100.56   -20 LegendNANA
10:00 -14.4 -17.8 75 13 9   100.56   -20 LegendNANA
11:00 -14.2 -17.4 76 12 9   100.58   -20 LegendNANA
12:00 -13.8 -17.3 75 13 8   100.58   -19 LegendNANA
13:00 -11.8 -15.6 73 12 3   100.57   -14 LegendNANA
14:00 -9.6 -12.8 77 11 5   100.56   -12 LegendNANA
15:00 -8.2 -10.3 85 18 4   100.56   -10 LegendNANA
16:00 -8.3 -10.9 81 8 11   100.56   -14 LegendNANA
17:00 -6.2 -10.0 74 5 20   100.54   -13 LegendNANA
18:00 -9.4 -12.5 78 9 7   100.55   -13 LegendNANA
19:00 -11.2 -14.7 75 12 9   100.57   -16 LegendNANA
20:00 -9.2 -12.7 76 11 6   100.54   -13 LegendNANA
21:00 -9.0 -13.8 68 6 10   100.51   -14 LegendNANA
22:00 -8.2 -13.7 64 22 4   100.46   -10 LegendNANA
23:00 -7.5 -12.3 68 20 3   100.42   -9 LegendNANA

Notes on Data Quality.

Legend

  • E = Estimated
  • M = Missing
  • NA = Not Available
  • ‡ = Partner data that is not subject to review by the National Climate Archives
Date modified: